Weather History for KLHW - October, 2014

Change the Weather History Date:

Wednesday, October 1, 2014

  Actual Average Record
Temperature  
Mean Temperature 72 °F -  
Max Temperature 83 °F 83 °F 94 °F (1971)
Min Temperature 62 °F 61 °F 44 °F (1967)
Cooling Degree Days 7    
Growing Degree Days 22 (Base 50)    
Moisture  
Dew Point 65 °F    
Average Humidity 81    
Maximum Humidity 100    
Minimum Humidity 52    
Precipitation  
Precipitation 0.01 in - - ()
Sea Level Pressure  
Sea Level Pressure 29.92 in    
Wind  
Wind Speed 3 mph (NNE)    
Max Wind Speed 9 mph    
Max Gust Speed -    
Visibility 9 miles    
Events Rain    
Averages and records for this station are not official NWS values.
T = Trace of Precipitation, MM = Missing Value Source: NWS Daily Summary

Daily Weather History Graph

Daily Weather History Graph

Search for Another Location

Airport or City:

Trip Planner

Search our weather history database for the weather conditions in past years. The results will help you decide how hot, cold, wet, or windy it might be!

Date:

Astronomy

Oct. 01, 2014 Rise Set
Actual Time 7:20 AM EDT 7:11 PM EDT
Civil Twilight 6:55 AM EDT 7:35 PM EDT
Nautical Twilight 6:27 AM EDT 8:03 PM EDT
Astronomical Twilight 5:59 AM EDT 8:32 PM EDT
Moon 2:04 PM EDT (10/1) No Moon Set
Length of Visible Light 12h 39m
Length of Day
11h 51m
Waxing Crescent, 48% of the Moon is Illuminated
Oct 1
Waxing Crescent
Oct 1
First Quarter
Oct 8
Full
Oct 15
Last Quarter
Oct 23
New

Hourly Weather History & Observations

Time (EDT) Temp. Heat Index Dew Point Humidity Pressure Visibility Wind Dir Wind Speed Gust Speed Precip Events Conditions
12:58 AM 67.6 °F - 66.0 °F 95% 29.88 in 10.0 mi NNE 6.9 mph - N/A   Overcast
1:13 AM 68.0 °F - 66.2 °F 94% 29.87 in 10.0 mi NNE 8.1 mph - N/A   Overcast
1:38 AM 66.2 °F - 64.4 °F 94% 29.89 in 4.0 mi Calm Calm - N/A   Clear
1:43 AM 64.4 °F - 64.4 °F 100% 29.89 in 3.0 mi North 3.5 mph - N/A   Clear
1:48 AM 64.4 °F - 64.4 °F 100% 29.89 in 5.0 mi Calm Calm - N/A   Clear
2:33 AM 64.4 °F - 62.6 °F 94% 29.89 in 7.0 mi Calm Calm - N/A   Clear
2:43 AM 64.4 °F - 62.6 °F 94% 29.89 in 10.0 mi Calm Calm - N/A   Clear
2:48 AM 68.0 °F - 66.2 °F 94% 29.86 in 10.0 mi NNE 8.1 mph - N/A   Overcast
2:58 AM 67.5 °F - 65.5 °F 93% 29.86 in 10.0 mi NNE 8.1 mph - N/A   Overcast
3:58 AM 67.5 °F - 65.1 °F 92% 29.86 in 10.0 mi NNE 9.2 mph - N/A   Overcast
4:58 AM 63.9 °F - 62.6 °F 96% 29.91 in 10.0 mi Calm Calm - N/A   Clear
5:58 AM 63.3 °F - 61.9 °F 95% 29.92 in 10.0 mi Calm Calm - N/A   Clear
6:58 AM 62.4 °F - 61.0 °F 95% 29.94 in 10.0 mi Calm Calm - N/A   Clear
7:58 AM 63.0 °F - 61.5 °F 95% 29.96 in 10.0 mi Calm Calm - N/A   Clear
8:58 AM 69.3 °F - 66.4 °F 91% 29.98 in 10.0 mi Calm Calm - N/A   Clear
9:58 AM 75.7 °F - 67.5 °F 75% 29.99 in 10.0 mi NNW 3.5 mph - N/A   Clear
10:58 AM 79.2 °F - 65.1 °F 62% 30.00 in 10.0 mi NNE 1.2 mph - 0.00 in   Clear
11:58 AM 81.5 °F 83.3 °F 64.8 °F 57% 30.00 in 10.0 mi Variable 1.2 mph - N/A   Partly Cloudy
12:58 PM 82.8 °F 84.5 °F 64.9 °F 55% 29.99 in 10.0 mi NNE 2.3 mph - 0.01 in   Scattered Clouds
1:49 PM 75.2 °F - 66.2 °F 73% 29.88 in 10.0 mi North 3.5 mph - N/A   Overcast
1:58 PM 75.0 °F - 65.7 °F 73% 29.89 in 10.0 mi North 3.5 mph - 0.00 in   Overcast
2:18 PM 77.0 °F - 66.2 °F 69% 29.87 in 10.0 mi Calm Calm - N/A   Scattered Clouds
2:23 PM 77.0 °F - 66.2 °F 69% 29.86 in 10.0 mi Variable 1.2 mph - N/A   Mostly Cloudy
2:58 PM 82.6 °F 83.8 °F 63.5 °F 52% 29.96 in 10.0 mi East 3.5 mph - N/A   Mostly Cloudy
3:58 PM 82.2 °F 83.8 °F 64.4 °F 55% 29.96 in 10.0 mi ESE 5.8 mph - N/A   Overcast
4:36 PM 78.8 °F - 66.2 °F 65% 29.84 in 10.0 mi Variable 1.2 mph - N/A Rain Light Rain
4:45 PM 78.8 °F - 66.2 °F 65% 29.84 in 10.0 mi North 4.6 mph - N/A   Mostly Cloudy
4:58 PM 79.2 °F - 66.4 °F 65% 29.85 in 10.0 mi NNE 3.5 mph - 0.00 in   Mostly Cloudy
5:58 PM 80.1 °F 81.4 °F 62.6 °F 55% 29.97 in 10.0 mi Calm Calm - N/A   Mostly Cloudy
6:58 PM 77.4 °F - 67.8 °F 72% 29.86 in 10.0 mi Calm Calm - N/A   Scattered Clouds
7:58 PM 72.7 °F - 68.5 °F 87% 29.87 in 10.0 mi Calm Calm - N/A   Clear
8:58 PM 69.4 °F - 65.3 °F 87% 30.01 in 10.0 mi Calm Calm - N/A   Clear
9:58 PM 67.1 °F - 64.8 °F 92% 30.02 in 10.0 mi Calm Calm - N/A   Clear
10:58 PM 65.8 °F - 63.9 °F 93% 30.03 in 10.0 mi Calm Calm - N/A   Clear
11:58 PM 64.9 °F - 63.1 °F 94% 30.03 in 10.0 mi Calm Calm - N/A   Clear